Regional Weather Roundup
Issued by NWS Charleston, SC

Current Version | Previous Version | Graphics & Text | Print | Product List | Glossary On
Versions: 1 2 3 4 5 6 7 8 9 10 11 12 13 14 15 16 17 18 19 20 21 22 23 24 25 26 27 28 29 30 31 32 33 34 35 36 37 38 39 40 41 42 43 44 45 46 47 48 49 50
000
ASUS42 KCHS 222227
RWRCHS

REGIONAL WEATHER ROUNDUP
NATIONAL WEATHER SERVICE CHARLESTON SC
600 PM EDT SAT APR 22 2017

NOTE: "FAIR" INDICATES FEW OR NO CLOUDS BELOW 12,000 FEET WITH NO
SIGNIFICANT WEATHER AND/OR OBSTRUCTIONS TO VISIBILITY.

NOT ALL STATIONS ARE QUALITY CONTROLLED. USE DATA WITH CAUTION...
ESPECIALLY DEWPOINT OBSERVATIONS.

SCZ027-030-031-034>040-042>050-222300-
...SOUTHEAST SOUTH CAROLINA...

CITY           SKY/WX    TMP DP  RH WIND       PRES   REMARKS
N CHARLESTON   MOSUNNY   81  65  58 S14       29.87S
WATERFRONT PRK   N/A     77  69  76 SW12      29.87R
JOHNS ISLAND   FAIR      77  68  73 S13G18    29.88F
PINOPOLIS        N/A     84  63  48 SW7       29.79S
MONCKS CORNER  FAIR      82  59  44 S12       29.85F
SUMMERVILLE    FAIR      82  63  51 S6G16     29.86F
BEAUFORT MCAS  MOSUNNY   81  68  64 S8G16     29.87F
BEAUFORT ARPT  FAIR      79  66  65 S9        29.87F
HILTON HEAD IS MOSUNNY   77  68  73 S10       29.89F
WALTERBORO     CLEAR     82  64  54 S13G18    29.86S
ALLENDALE      FAIR      86  54  32 SW5       29.82F

...SOUTHERN MIDLANDS AND PEE DEE...

CITY           SKY/WX    TMP DP  RH WIND       PRES   REMARKS
GEORGETOWN     FAIR      77  64  65 S8G17     29.87F
KINGSTREE      FAIR      84  52  32 SW8       29.83F
ORANGEBURG     MOSUNNY   86  55  34 SW8       29.83F
BARNWELL       FAIR      86  59  39 S6G13     29.83F
AIKEN          FAIR      82  52  34 S10G18    29.85F
MANNING        FAIR      82  55  39 SW12G22   29.83F
COLUMBIA       MOSUNNY   87  54  32 S15       29.80F
SUMTER         MOSUNNY   87  56  34 SW10      29.80F
FLORENCE       SUNNY     86  58  38 SW12      29.82F
MYRTLE BEACH   MOSUNNY   79  68  69 S14       29.86S
N MYRTLE BEACH SUNNY     75  68  78 SW21      29.85F

$$

GAZ063-065-086>088-099>101-113>116-118-119-134>141-150-222300-
...SOUTHEAST GEORGIA...

CITY           SKY/WX    TMP DP  RH WIND       PRES   REMARKS
SAVANNAH ARPT  PTSUNNY   84  64  50 S17       29.87F
HUNTER AAF     PTSUNNY   79  71  76 SE12      29.86S
FORT STEWART   PTSUNNY   85  56  36 S8        29.84F
STATESBORO     MOSUNNY   86  53  31 S10G17    29.84S
SYLVANIA       PTCLDY    88  54  31 SW6       29.84F
CLAXTON        FAIR      85  58  40 SE6       29.85S

...CSRA...CENTRAL AND FAR SOUTHEAST GEORGIA...

CITY           SKY/WX    TMP DP  RH WIND       PRES   REMARKS
THOMSON        SUNNY     84  53  34 W7G16     29.86F
AUGUSTA-BUSH   MOSUNNY   88  52  29 SW7       29.80F
AUGUSTA-DANIEL MOSUNNY   87  50  27 SW10G22   29.83F
SWAINSBORO     FAIR      86  54  32 SW6       29.85S
VIDALIA        MOSUNNY   86  55  35 S6        29.84F
EASTMAN        FAIR      88  25  10 SW6       29.86F
HAZLEHURST     FAIR      86  56  35 SW7       29.84F
ALMA           MOSUNNY   84  60  44 S8        29.86F
WAYCROSS       MOSUNNY   88  62  41 S8        29.86F
JESUP          FAIR      86  52  30 SW6       29.87F
BAXLEY         FAIR      86  63  45 S9        29.85F
BRUNSWICK      MOSUNNY   79  70  73 S12       29.90S
SAINT SIMONS   CLOUDY    77  67  71 S10G21    29.89S

$$

SCZ027-028-034-036>038-045-046-048>050-GAZ119-141-222300-
...LAKE AND SUPPLEMENTAL COASTAL OBSERVATIONS...

STATION/POSITION TIME  TEMP    WIND        PRES    WAVE   SWELL
                       AIR SEA DIR/SP/G            HT/PER HT/PER/DIR
                 (UTC) (F)     (DEG/KT/KT) (MB)    (FT/S) (FT/S/D)
WINYAH BAY       2145   79     210/ 14     1011.0S
LAKE MURRAY      2130   83     230/  8/ 12 1009.1F
ACE BASIN NERRS  2130   79     170/  2     1012.0S
FORT PULASKI     2200   76 74  190/  8/ 14 1012.2
SAPELO ISLAND    2145   80     160/ 11     1012.0S

$$

ANZ835-935-AMZ111-154-330-350-352-354-370-450-454-472-222300-
...C-MAN AND BUOY OBSERVATIONS...

STATION/POSITION TIME  TEMP    WIND        PRES    WAVE   SWELL
                       AIR SEA DIR/SP/G            HT/PER HT/PER/DIR
                 (UTC) (F)     (DEG/KT/KT) (MB)    (FT/S) (FT/S/D)
BUOY 41004       2210   74 74  220/ 14/ 16 1012.4
BUOY 41008       2150   74 73  170/ 12/ 14 1012.1S   2/ 5   2/ 90/11
FOLLY BEACH CMAN 2200   74     200/ 14/ 18 1012.8F
CAPERS NEARSHORE 2208   74 71  210/ 16/ 21 1011.6F
FRIPP NEARSHORE  2208   74 74  190/ 12/ 16 1011.6F


STATION/POSITION TIME  TEMP    WIND        PRES    WAVE   SWELL
                       AIR SEA DIR/SP/G            HT/PER HT/PER/DIR
                 (UTC) (F)     (DEG/KT/KT) (MB)    (FT/S) (FT/S/D)
5E ST. MARYS GA  2200      74                N/A     3/ 5
FRYING PAN BUOY  2210   74 74  210/ 17/ 21 1011.5
BUOY 41025       2150   77 75  220/ 19/ 23 1010.6F   5/12   2/100/12
CAPE LOOKOUT NC  2200   73     200/ 14/ 19 1010.8S
BUOY 41002       2150   72 74  190/ 12/ 14 1015.6F   4/12   3/ 30/12
BUOY 41010       2210   75 76  160/ 10/ 14 1014.1
ST AUGUSTINE FL  2200   75 77  140/ 17/ 19 1013.4F


$$




USA.gov is the U.S. government's official web portal to all federal, state and local government web resources and services.